Location: *
(51.1248°S, 108.4023°W)
Time: 21:25:31
(UTC+00:00)

DEBRIS - Pass Details

Date: 15 June 2021
Orbit: 275 x 15223 km, 49.5° (Epoch: 02 August)

Event Time Altitude Azimuth Distance (km) Brightness Sun altitude
Exits shadow 14:21:03 - 272° (W) 1,200 4.0 -8.2°
Reaches altitude 10° 14:21:07 10° 273° (W) 1,163 4.0 -8.2°
Maximum altitude 14:23:09 48° 350° (N) 398 2.3 -7.9°
Drops below altitude 10° 14:25:37 10° 68° (ENE) 1,417 6.7 -7.6°
Sets 14:28:20 0° 73° (ENE) 2,843 8.5 -7.2°
